Hourly Data Report for March 02, 2003

SHERBROOKE A
QUEBEC

45°26'00.000" N
71°41'00.000" W
241.40 m
7028124
71610
YSC

Download Data

Hourly Data (March 2003)
Hourly Data Report for March 2, 2003
TIME
LST
Temp Definition
°C
Dew Point Definition
°C
Rel Hum Definition
%
Precip. Amount Definition
mm

Wind Dir Definition
10's deg

Wind Spd Definition
km/h
Visibility Definition
km
Stn Press Definition
kPa
Hmdx Definition


Wind Chill Definition


Weather Definition


00:00 -6.6 -12.4 63   8 6 15.0 98.63   -10  
01:00 -5.9 -11.6 64   9 7 15.0 98.56   -9  
02:00 -7.0 -11.8 69   9 7 15.0 98.48   -11  
03:00 -4.8 -9.9 67   8 7 15.0 98.34   -8  
04:00 -5.4 -9.9 71   10 4 15.0 98.25   -7  
05:00 -4.3 -8.5 72   8 4 11.3 98.16   -6 Snow
06:00 -4.8 -8.2 77   8 4 5.6 98.07   -7 Snow
07:00 -2.8 -7.0 73   10 6 12.9 97.93   -5  
08:00 -1.2 -6.0 70   12 11 24.1 97.77   -5 Cloudy
09:00 0.8 -5.4 63   15 13 19.3 97.64     Snow Showers
10:00 -0.4 -3.1 82   14 9 1.2 97.48   -4 Snow
11:00 -0.2 -3.0 81   12 4 2.4 97.30   -1 Snow
12:00 0.2 -2.2 84   16 6 0.8 97.27     Moderate Snow
13:00 0.4 -2.0 84   15 9 1.2 97.16     Snow
14:00 0.4 -1.8 85     0 1.6 97.03     Snow
15:00 1.1 -1.5 83   16 4 19.3 96.90     Rain, Snow
16:00 1.3 -1.3 83   17 7 19.3 96.79     Rain
17:00 1.0 -1.5 83   14 7 19.3 96.72     Rain
18:00 0.7 -1.5 85   31 4 11.3 96.64     Snow
19:00 0.6 -1.7 85   23 11 8.0 96.60     Snow
20:00 0.6 -2.0 83   27 22 9.7 96.57     Snow
21:00 0.2 -2.5 82   26 19 5.6 96.55     Snow
22:00 0.1 -3.4 77   24 13 9.7 96.52     Snow
23:00 -0.8 -4.1 78   26 19 4.8 96.47   -6 Snow

Notes on Data Quality.

Legend

  • E = Estimated
  • M = Missing
  • NA = Not Available*
  • [empty] = Indicates an unobserved value
Date modified: